Data start date =,9/25/1998
Data end date/time =,5/2/2024 12:00
""
""
Date/Time,LockDam_09
,Temp-Water
UTC,F
,Ave
9/25/1998 12:00,66
9/26/1998 12:00,67
9/27/1998 12:00,69
9/28/1998 12:00,70
9/29/1998 12:00,70
9/30/1998 12:00,70
10/1/1998 12:00,66
10/2/1998 12:00,64
10/3/1998 12:00,62
10/4/1998 12:00,60
10/5/1998 12:00,59
10/6/1998 12:00,69
10/7/1998 12:00,59
10/8/1998 12:00,57
10/9/1998 12:00,57
10/10/1998 12:00,58
10/11/1998 12:00,58
10/12/1998 12:00,59
10/13/1998 12:00,58
10/14/1998 12:00,56
10/15/1998 12:00,55
10/16/1998 12:00,56
10/17/1998 12:00,58
10/18/1998 12:00,59
10/19/1998 12:00,57
10/20/1998 12:00,55
10/21/1998 12:00,55
10/22/1998 12:00,54
10/23/1998 12:00,53
10/24/1998 12:00,54
10/25/1998 12:00,54
10/26/1998 12:00,55
10/27/1998 12:00,56
10/28/1998 12:00,57
10/29/1998 12:00,56
10/30/1998 12:00,55
10/31/1998 12:00,55
11/1/1998 12:00,54
11/2/1998 12:00,53
11/3/1998 12:00,50
11/4/1998 12:00,47
11/5/1998 12:00,43
11/6/1998 12:00,45
11/7/1998 12:00,44
11/8/1998 12:00,43
11/9/1998 12:00,44
11/10/1998 12:00,43
11/11/1998 12:00,42
11/12/1998 12:00,40
11/13/1998 12:00,40
11/14/1998 12:00,41
11/15/1998 12:00,42
11/16/1998 12:00,41
11/17/1998 12:00,41
11/18/1998 12:00,41
11/19/1998 12:00,42
11/20/1998 12:00,39
11/21/1998 12:00,37
11/22/1998 12:00,38
11/23/1998 12:00,39
11/24/1998 12:00,40
11/25/1998 12:00,41
11/26/1998 12:00,41
11/27/1998 12:00,42
11/28/1998 12:00,41
11/29/1998 12:00,43
11/30/1998 12:00,45
12/1/1998 12:00,45
12/2/1998 12:00,44
12/3/1998 12:00,46
12/4/1998 12:00,46
12/5/1998 12:00,46
12/6/1998 12:00,48
12/7/1998 12:00,44
12/8/1998 12:00,41
12/9/1998 12:00,40
12/10/1998 12:00,39
12/11/1998 12:00,39
12/12/1998 12:00,38
12/13/1998 12:00,39
12/14/1998 12:00,38
12/15/1998 12:00,38
12/16/1998 12:00,38
12/17/1998 12:00,38
12/18/1998 12:00,37
12/19/1998 12:00,36
12/20/1998 12:00,35
12/21/1998 12:00,33
12/22/1998 12:00,33
12/23/1998 12:00,33
12/24/1998 12:00,33
12/25/1998 12:00,33
12/26/1998 12:00,33
12/27/1998 12:00,33
12/28/1998 12:00,33
12/29/1998 12:00,33
12/30/1998 12:00,33
12/31/1998 12:00,33
1/1/1999 12:00,33
1/2/1999 12:00,33
1/3/1999 12:00,33
1/4/1999 12:00,32
1/5/1999 12:00,32
1/6/1999 12:00,32
1/7/1999 12:00,32
1/8/1999 12:00,32
1/9/1999 12:00,32
1/10/1999 12:00,32
1/11/1999 12:00,32
1/12/1999 12:00,32
1/13/1999 12:00,32
1/14/1999 12:00,32
1/15/1999 12:00,32
1/16/1999 12:00,32
1/17/1999 12:00,32
1/18/1999 12:00,32
1/19/1999 12:00,32
1/20/1999 12:00,32
1/21/1999 12:00,32
1/22/1999 12:00,32
1/23/1999 12:00,32
1/24/1999 12:00,33
1/25/1999 12:00,32
1/26/1999 12:00,32
1/27/1999 12:00,32
1/28/1999 12:00,32
1/29/1999 12:00,32
1/30/1999 12:00,33
1/31/1999 12:00,33
2/1/1999 12:00,33
2/2/1999 12:00,33
2/3/1999 12:00,33
2/4/1999 12:00,32
2/5/1999 12:00,33
2/6/1999 12:00,33
2/7/1999 12:00,33
2/8/1999 12:00,33
2/9/1999 12:00,33
2/10/1999 12:00,33
2/11/1999 12:00,33
2/12/1999 12:00,32
2/13/1999 12:00,32
2/14/1999 12:00,33
2/15/1999 12:00,33
2/16/1999 12:00,33
2/17/1999 12:00,33
2/18/1999 12:00,33
2/19/1999 12:00,33
2/20/1999 12:00,32
2/21/1999 12:00,32
2/22/1999 12:00,32
2/23/1999 12:00,32
2/24/1999 12:00,33
2/25/1999 12:00,32
2/26/1999 12:00,33
2/27/1999 12:00,33
2/28/1999 12:00,34
3/1/1999 12:00,35
3/2/1999 12:00,35
3/3/1999 12:00,34
3/4/1999 12:00,33
3/5/1999 12:00,34
3/6/1999 12:00,32
3/7/1999 12:00,33
3/8/1999 12:00,34
3/9/1999 12:00,33
3/10/1999 12:00,32
3/11/1999 12:00,34
3/12/1999 12:00,36
3/13/1999 12:00,37
3/14/1999 12:00,38
3/15/1999 12:00,39
3/16/1999 12:00,40
3/17/1999 12:00,42
3/18/1999 12:00,43
3/19/1999 12:00,41
3/20/1999 12:00,43
3/21/1999 12:00,43
3/22/1999 12:00,41
3/23/1999 12:00,43
3/24/1999 12:00,44
3/25/1999 12:00,44
3/26/1999 12:00,43
3/27/1999 12:00,44
3/28/1999 12:00,45
3/29/1999 12:00,45
3/30/1999 12:00,47
3/31/1999 12:00,48
4/1/1999 12:00,52
4/2/1999 12:00,53
4/3/1999 12:00,56
4/4/1999 12:00,56
4/5/1999 12:00,56
4/6/1999 12:00,51
4/7/1999 12:00,51
4/8/1999 12:00,53
4/9/1999 12:00,51
4/10/1999 12:00,50
4/11/1999 12:00,50
4/12/1999 12:00,50
4/13/1999 12:00,50
4/14/1999 12:00,51
4/15/1999 12:00,54
4/16/1999 12:00,53
4/17/1999 12:00,52
4/18/1999 12:00,52
4/19/1999 12:00,52
4/20/1999 12:00,50
4/21/1999 12:00,49
4/22/1999 12:00,51
4/23/1999 12:00,49
4/24/1999 12:00,51
4/25/1999 12:00,53
4/26/1999 12:00,55
4/27/1999 12:00,57
4/28/1999 12:00,54
4/29/1999 12:00,56
4/30/1999 12:00,58
5/1/1999 12:00,59
5/2/1999 12:00,62
5/3/1999 12:00,62
5/4/1999 12:00,64
5/5/1999 12:00,65
5/6/1999 12:00,63
5/7/1999 12:00,61
5/8/1999 12:00,59
5/9/1999 12:00,59
5/10/1999 12:00,61
5/11/1999 12:00,63
5/13/1999 12:00,63
5/14/1999 12:00,63
5/15/1999 12:00,62
5/16/1999 12:00,63
5/17/1999 12:00,63
5/18/1999 12:00,63
5/19/1999 12:00,64
5/20/1999 12:00,66
5/21/1999 12:00,65
5/22/1999 12:00,65
5/23/1999 12:00,67
5/24/1999 12:00,63
5/25/1999 12:00,62
5/26/1999 12:00,62
5/27/1999 12:00,64
5/28/1999 12:00,65
5/29/1999 12:00,68
5/30/1999 12:00,70
5/31/1999 12:00,72
6/1/1999 12:00,71
6/2/1999 12:00,70
6/3/1999 12:00,68
6/4/1999 12:00,69
6/5/1999 12:00,68
6/6/1999 12:00,71
6/7/1999 12:00,74
6/8/1999 12:00,76
6/9/1999 12:00,76
6/10/1999 12:00,78
6/11/1999 12:00,78
6/12/1999 12:00,77
6/13/1999 12:00,78
6/14/1999 12:00,76
6/15/1999 12:00,72
6/17/1999 12:00,72
6/18/1999 12:00,72
6/19/1999 12:00,72
6/20/1999 12:00,71
6/21/1999 12:00,71
6/22/1999 12:00,76
6/23/1999 12:00,76
6/24/1999 12:00,77
6/25/1999 12:00,77
6/26/1999 12:00,77
6/27/1999 12:00,77
6/28/1999 12:00,77
6/29/1999 12:00,76
6/30/1999 12:00,75
7/1/1999 12:00,74
7/2/1999 12:00,75
7/3/1999 12:00,74
7/4/1999 12:00,76
7/5/1999 12:00,80
7/6/1999 12:00,82
7/7/1999 12:00,80
7/8/1999 12:00,81
7/9/1999 12:00,79
7/10/1999 12:00,77
7/11/1999 12:00,77
7/12/1999 12:00,78
7/13/1999 12:00,78
7/14/1999 12:00,76
7/15/1999 12:00,78
7/16/1999 12:00,80
7/17/1999 12:00,80
7/18/1999 12:00,81
7/19/1999 12:00,78
7/20/1999 12:00,79
7/21/1999 12:00,78
7/22/1999 12:00,78
7/23/1999 12:00,82
7/24/1999 12:00,82
7/25/1999 12:00,85
7/26/1999 12:00,87
7/27/1999 12:00,85
7/28/1999 12:00,86
7/29/1999 12:00,86
7/30/1999 12:00,87
7/31/1999 12:00,88
8/1/1999 12:00,84
8/2/1999 12:00,82
8/3/1999 12:00,81
8/4/1999 12:00,80
8/5/1999 12:00,80
8/6/1999 12:00,80
8/7/1999 12:00,81
8/8/1999 12:00,78
8/9/1999 12:00,78
8/10/1999 12:00,74
8/11/1999 12:00,77
8/12/1999 12:00,77
8/13/1999 12:00,77
8/14/1999 12:00,72
8/15/1999 12:00,72
8/16/1999 12:00,73
8/17/1999 12:00,75
8/18/1999 12:00,77
8/19/1999 12:00,75
8/20/1999 12:00,75
8/21/1999 12:00,76
8/22/1999 12:00,76
8/23/1999 12:00,73
8/24/1999 12:00,73
8/25/1999 12:00,73
8/26/1999 12:00,75
8/27/1999 12:00,77
8/28/1999 12:00,78
8/29/1999 12:00,79
8/30/1999 12:00,76
8/31/1999 12:00,73
9/1/1999 12:00,73
9/2/1999 12:00,74
9/3/1999 12:00,76
9/4/1999 12:00,78
9/5/1999 12:00,78
9/6/1999 12:00,76
9/7/1999 12:00,75
9/8/1999 12:00,75
9/9/1999 12:00,73
9/10/1999 12:00,69
9/11/1999 12:00,69
9/12/1999 12:00,70
9/13/1999 12:00,68
9/14/1999 12:00,65
9/15/1999 12:00,64
9/16/1999 12:00,64
9/17/1999 12:00,65
9/18/1999 12:00,66
9/19/1999 12:00,66
9/20/1999 12:00,64
9/21/1999 12:00,61
9/22/1999 12:00,62
9/23/1999 12:00,62
9/24/1999 12:00,64
9/25/1999 12:00,63
9/26/1999 12:00,64
9/27/1999 12:00,64
9/28/1999 12:00,63
9/29/1999 12:00,61
9/30/1999 12:00,61
10/1/1999 12:00,60
10/2/1999 12:00,57
10/3/1999 12:00,55
10/4/1999 12:00,52
10/5/1999 12:00,53
10/6/1999 12:00,54
10/7/1999 12:00,55
10/8/1999 12:00,56
10/9/1999 12:00,56
10/10/1999 12:00,58
10/11/1999 12:00,58
10/12/1999 12:00,59
10/13/1999 12:00,59
10/14/1999 12:00,56
10/15/1999 12:00,55
10/16/1999 12:00,56
10/17/1999 12:00,56
10/18/1999 12:00,53
10/19/1999 12:00,51
10/20/1999 12:00,50
10/21/1999 12:00,50
10/22/1999 12:00,51
10/23/1999 12:00,48
10/24/1999 12:00,45
10/25/1999 12:00,45
10/26/1999 12:00,47
10/27/1999 12:00,48
10/28/1999 12:00,48
10/29/1999 12:00,49
10/30/1999 12:00,52
10/31/1999 12:00,52
11/1/1999 12:00,53
11/2/1999 12:00,51
11/3/1999 12:00,47
11/4/1999 12:00,46
11/5/1999 12:00,47
11/6/1999 12:00,47
11/7/1999 12:00,46
11/8/1999 12:00,46
11/9/1999 12:00,47
11/10/1999 12:00,50
11/11/1999 12:00,50
11/12/1999 12:00,48
11/13/1999 12:00,48
11/14/1999 12:00,49
11/15/1999 12:00,47
11/16/1999 12:00,46
11/17/1999 12:00,44
11/18/1999 12:00,45
11/19/1999 12:00,46
11/20/1999 12:00,45
11/21/1999 12:00,45
11/22/1999 12:00,44
11/23/1999 12:00,45
11/24/1999 12:00,45
11/25/1999 12:00,43
11/26/1999 12:00,42
11/27/1999 12:00,41
11/28/1999 12:00,41
11/29/1999 12:00,40
11/30/1999 12:00,38
12/1/1999 12:00,37
12/2/1999 12:00,37
12/3/1999 12:00,38
12/4/1999 12:00,39
12/5/1999 12:00,40
12/6/1999 12:00,39
12/7/1999 12:00,37
12/8/1999 12:00,37
12/9/1999 12:00,37
12/10/1999 12:00,37
12/11/1999 12:00,35
12/12/1999 12:00,35
12/13/1999 12:00,36
12/14/1999 12:00,35
12/15/1999 12:00,36
12/16/1999 12:00,35
12/17/1999 12:00,33
12/18/1999 12:00,32
12/19/1999 12:00,33
12/20/1999 12:00,33
12/21/1999 12:00,33
12/22/1999 12:00,33
12/23/1999 12:00,33
12/24/1999 12:00,33
12/25/1999 12:00,33
12/26/1999 12:00,33
12/27/1999 12:00,33
12/28/1999 12:00,33
12/29/1999 12:00,32
12/30/1999 12:00,32
12/31/1999 12:00,32
1/1/2000 12:00,32
1/2/2000 12:00,33
1/3/2000 12:00,32
1/4/2000 12:00,32
1/5/2000 12:00,32
1/6/2000 12:00,32
1/7/2000 12:00,33
1/8/2000 12:00,33
1/9/2000 12:00,33
1/10/2000 12:00,33
1/11/2000 12:00,33
1/12/2000 12:00,33
1/13/2000 12:00,32
1/14/2000 12:00,32
1/15/2000 12:00,32
1/16/2000 12:00,33
1/17/2000 12:00,33
1/18/2000 12:00,33
1/19/2000 12:00,32
1/20/2000 12:00,32
1/21/2000 12:00,32
1/22/2000 12:00,32
1/23/2000 12:00,32
1/24/2000 12:00,32
1/25/2000 12:00,32
1/26/2000 12:00,32
1/27/2000 12:00,32
1/28/2000 12:00,33
1/29/2000 12:00,33
1/30/2000 12:00,32
1/31/2000 12:00,32
2/1/2000 12:00,32
2/2/2000 12:00,32
2/3/2000 12:00,32
2/4/2000 12:00,32
2/5/2000 12:00,32
2/6/2000 12:00,32
2/7/2000 12:00,32
2/8/2000 12:00,32
2/9/2000 12:00,32
2/10/2000 12:00,32
2/11/2000 12:00,32
2/12/2000 12:00,32
2/13/2000 12:00,32
2/14/2000 12:00,32
2/15/2000 12:00,32
2/16/2000 12:00,32
2/17/2000 12:00,32
2/18/2000 12:00,32
2/19/2000 12:00,32
2/20/2000 12:00,32
2/21/2000 12:00,32
2/22/2000 12:00,32
2/23/2000 12:00,32
2/24/2000 12:00,32
2/25/2000 12:00,32
2/26/2000 12:00,32
2/27/2000 12:00,33
2/28/2000 12:00,34
2/29/2000 12:00,36
3/1/2000 12:00,39
3/2/2000 12:00,40
3/3/2000 12:00,40
3/4/2000 12:00,40
3/5/2000 12:00,42
3/6/2000 12:00,44
3/7/2000 12:00,46
3/8/2000 12:00,48
3/9/2000 12:00,50
3/10/2000 12:00,44
3/11/2000 12:00,43
3/12/2000 12:00,42
3/13/2000 12:00,42
3/14/2000 12:00,42
3/15/2000 12:00,42
3/16/2000 12:00,40
3/17/2000 12:00,40
3/18/2000 12:00,40
3/19/2000 12:00,38
3/20/2000 12:00,39
3/21/2000 12:00,40
3/22/2000 12:00,42
3/23/2000 12:00,43
3/24/2000 12:00,46
3/25/2000 12:00,47
3/26/2000 12:00,47
3/27/2000 12:00,47
3/28/2000 12:00,46
3/29/2000 12:00,44
3/30/2000 12:00,47
3/31/2000 12:00,47
4/1/2000 12:00,49
4/2/2000 12:00,50
4/3/2000 12:00,51
4/4/2000 12:00,47
4/5/2000 12:00,46
4/6/2000 12:00,49
4/7/2000 12:00,49
4/8/2000 12:00,46
4/9/2000 12:00,46
4/10/2000 12:00,49
4/11/2000 12:00,46
4/12/2000 12:00,45
4/13/2000 12:00,47
4/14/2000 12:00,48
4/15/2000 12:00,53
4/16/2000 12:00,52
4/17/2000 12:00,48
4/18/2000 12:00,47
4/19/2000 12:00,50
4/20/2000 12:00,50
4/21/2000 12:00,47
4/22/2000 12:00,49
4/23/2000 12:00,53
4/24/2000 12:00,54
4/25/2000 12:00,55
4/26/2000 12:00,57
4/27/2000 12:00,59
4/28/2000 12:00,60
4/29/2000 12:00,61
4/30/2000 12:00,61
5/1/2000 12:00,63
5/2/2000 12:00,64
5/3/2000 12:00,65
5/4/2000 12:00,67
5/5/2000 12:00,69
5/6/2000 12:00,71
5/7/2000 12:00,72
5/8/2000 12:00,73
5/9/2000 12:00,73
5/10/2000 12:00,68
5/11/2000 12:00,66
5/12/2000 12:00,64
5/13/2000 12:00,64
5/14/2000 12:00,58
5/15/2000 12:00,59
5/16/2000 12:00,62
5/17/2000 12:00,64
5/18/2000 12:00,63
5/19/2000 12:00,59
5/20/2000 12:00,61
5/21/2000 12:00,62
5/22/2000 12:00,62
5/23/2000 12:00,63
5/24/2000 12:00,68
5/25/2000 12:00,66
5/26/2000 12:00,68
5/27/2000 12:00,65
5/28/2000 12:00,63
5/29/2000 12:00,63
5/30/2000 12:00,64
5/31/2000 12:00,66
6/1/2000 12:00,66
6/2/2000 12:00,68
6/3/2000 12:00,68
6/4/2000 12:00,69
6/5/2000 12:00,65
6/6/2000 12:00,66
6/7/2000 12:00,68
6/8/2000 12:00,68
6/9/2000 12:00,70
6/10/2000 12:00,74
6/11/2000 12:00,74
6/12/2000 12:00,77
6/13/2000 12:00,73
6/17/2000 12:00,68
6/18/2000 12:00,69
6/19/2000 12:00,70
6/20/2000 12:00,72
6/21/2000 12:00,73
6/22/2000 12:00,72
6/23/2000 12:00,74
6/24/2000 12:00,73
6/25/2000 12:00,72
6/26/2000 12:00,75
6/27/2000 12:00,75
6/28/2000 12:00,75
6/29/2000 12:00,74
6/30/2000 12:00,75
7/1/2000 12:00,75
7/2/2000 12:00,77
7/3/2000 12:00,75
7/4/2000 12:00,76
7/5/2000 12:00,76
7/6/2000 12:00,78
7/7/2000 12:00,80
7/8/2000 12:00,79
7/9/2000 12:00,81
7/10/2000 12:00,81
7/11/2000 12:00,82
7/12/2000 12:00,81
7/13/2000 12:00,79
7/14/2000 12:00,82
7/15/2000 12:00,82
7/16/2000 12:00,82
7/17/2000 12:00,82
7/18/2000 12:00,80
7/19/2000 12:00,77
7/20/2000 12:00,77
7/21/2000 12:00,74
7/22/2000 12:00,74
7/23/2000 12:00,74
7/26/2000 12:00,76
7/27/2000 12:00,76
7/28/2000 12:00,78
7/29/2000 12:00,77
7/30/2000 12:00,77
7/31/2000 12:00,77
8/1/2000 12:00,79
8/2/2000 12:00,80
8/3/2000 12:00,79
8/4/2000 12:00,79
8/5/2000 12:00,79
8/6/2000 12:00,75
8/7/2000 12:00,77
8/8/2000 12:00,79
8/9/2000 12:00,80
8/10/2000 12:00,81
8/11/2000 12:00,81
8/12/2000 12:00,82
8/13/2000 12:00,81
8/14/2000 12:00,81
8/15/2000 12:00,81
8/16/2000 12:00,81
8/17/2000 12:00,81
8/18/2000 12:00,75
8/19/2000 12:00,75
8/20/2000 12:00,75
8/22/2000 12:00,72
8/23/2000 12:00,74
8/24/2000 12:00,75
8/25/2000 12:00,77
8/26/2000 12:00,78
8/27/2000 12:00,78
8/28/2000 12:00,78
8/29/2000 12:00,77
8/30/2000 12:00,76
8/31/2000 12:00,76
9/1/2000 12:00,79
9/2/2000 12:00,79
9/3/2000 12:00,78
9/4/2000 12:00,79
9/5/2000 12:00,75
9/6/2000 12:00,72
9/7/2000 12:00,71
9/8/2000 12:00,70
9/9/2000 12:00,72
9/10/2000 12:00,73
9/11/2000 12:00,75
9/12/2000 12:00,75
9/13/2000 12:00,73
9/14/2000 12:00,72
9/15/2000 12:00,70
9/16/2000 12:00,68
9/17/2000 12:00,68
9/18/2000 12:00,69
9/19/2000 12:00,70
9/20/2000 12:00,68
9/21/2000 12:00,66
9/22/2000 12:00,63
9/23/2000 12:00,63
9/24/2000 12:00,59
9/25/2000 12:00,57
9/26/2000 12:00,57
9/27/2000 12:00,57
9/28/2000 12:00,59
9/30/2000 12:00,62
10/1/2000 12:00,62
10/2/2000 12:00,63
10/3/2000 12:00,63
10/4/2000 12:00,62
10/5/2000 12:00,61
10/6/2000 12:00,58
10/7/2000 12:00,53
10/8/2000 12:00,50
10/9/2000 12:00,48
10/10/2000 12:00,49
10/11/2000 12:00,50
10/12/2000 12:00,50
10/13/2000 12:00,53
10/14/2000 12:00,56
10/15/2000 12:00,58
10/16/2000 12:00,58
10/17/2000 12:00,57
10/18/2000 12:00,56
10/19/2000 12:00,56
10/20/2000 12:00,57
10/21/2000 12:00,59
10/22/2000 12:00,58
10/23/2000 12:00,58
10/24/2000 12:00,58
10/25/2000 12:00,58
10/26/2000 12:00,59
10/27/2000 12:00,61
10/28/2000 12:00,60
10/29/2000 12:00,57
10/30/2000 12:00,56
10/31/2000 12:00,54
11/1/2000 12:00,55
11/2/2000 12:00,57
11/3/2000 12:00,57
11/4/2000 12:00,54
11/5/2000 12:00,53
11/6/2000 12:00,53
11/7/2000 12:00,51
11/8/2000 12:00,47
11/9/2000 12:00,44
11/10/2000 12:00,43
11/11/2000 12:00,42
11/12/2000 12:00,43
11/13/2000 12:00,43
11/14/2000 12:00,41
11/15/2000 12:00,38
11/16/2000 12:00,38
11/17/2000 12:00,38
11/18/2000 12:00,36
11/19/2000 12:00,35
11/20/2000 12:00,34
11/21/2000 12:00,33
11/22/2000 12:00,33
11/23/2000 12:00,33
11/24/2000 12:00,33
11/25/2000 12:00,33
11/26/2000 12:00,33
11/27/2000 12:00,33
11/28/2000 12:00,33
11/29/2000 12:00,33
11/30/2000 12:00,33
12/1/2000 12:00,35
12/2/2000 12:00,35
12/3/2000 12:00,34
12/4/2000 12:00,33
12/5/2000 12:00,32
12/6/2000 12:00,33
12/7/2000 12:00,33
12/8/2000 12:00,33
12/9/2000 12:00,33
12/10/2000 12:00,33
12/11/2000 12:00,33
12/12/2000 12:00,33
12/13/2000 12:00,32
12/14/2000 12:00,33
12/15/2000 12:00,32
12/16/2000 12:00,33
12/17/2000 12:00,33
12/18/2000 12:00,32
12/19/2000 12:00,33
12/20/2000 12:00,32
12/21/2000 12:00,32
12/22/2000 12:00,32
12/23/2000 12:00,32
12/24/2000 12:00,32
12/25/2000 12:00,32
12/26/2000 12:00,32
12/27/2000 12:00,32
12/28/2000 12:00,32
12/29/2000 12:00,32
12/30/2000 12:00,32
12/31/2000 12:00,32
1/1/2001 12:00,32
1/2/2001 12:00,32
1/3/2001 12:00,32
1/4/2001 12:00,32
1/5/2001 12:00,32
1/6/2001 12:00,32
1/7/2001 12:00,32
1/8/2001 12:00,32
1/9/2001 12:00,32
1/10/2001 12:00,32
1/11/2001 12:00,32
1/12/2001 12:00,33
1/13/2001 12:00,32
1/14/2001 12:00,32
1/15/2001 12:00,32
1/16/2001 12:00,32
1/17/2001 12:00,32
1/18/2001 12:00,32
1/19/2001 12:00,32
1/20/2001 12:00,32
1/21/2001 12:00,32
1/22/2001 12:00,32
1/23/2001 12:00,32
1/24/2001 12:00,32
1/25/2001 12:00,32
1/26/2001 12:00,32
1/27/2001 12:00,32
1/28/2001 12:00,32
1/29/2001 12:00,32
1/30/2001 12:00,32
1/31/2001 12:00,32
2/1/2001 12:00,32
2/2/2001 12:00,32
2/3/2001 12:00,32
2/4/2001 12:00,32
2/5/2001 12:00,32
2/6/2001 12:00,32
2/7/2001 12:00,32
2/8/2001 12:00,32
2/9/2001 12:00,32
2/10/2001 12:00,32
2/11/2001 12:00,32
2/12/2001 12:00,32
2/13/2001 12:00,32
2/14/2001 12:00,32
2/15/2001 12:00,32
2/16/2001 12:00,32
2/17/2001 12:00,32
2/18/2001 12:00,32
2/19/2001 12:00,32
2/20/2001 12:00,32
2/21/2001 12:00,32
2/22/2001 12:00,32
2/23/2001 12:00,32
2/24/2001 12:00,32
2/25/2001 12:00,32
2/26/2001 12:00,32
2/27/2001 12:00,32
2/28/2001 12:00,32
3/1/2001 12:00,32
3/2/2001 12:00,32
3/3/2001 12:00,32
3/4/2001 12:00,32
3/5/2001 12:00,32
3/6/2001 12:00,32
3/7/2001 12:00,32
3/8/2001 12:00,32
3/9/2001 12:00,32
3/10/2001 12:00,32
3/11/2001 12:00,32
3/12/2001 12:00,32
3/13/2001 12:00,32
3/14/2001 12:00,33
3/15/2001 12:00,33
3/16/2001 12:00,34
3/17/2001 12:00,34
3/18/2001 12:00,33
3/19/2001 12:00,34
3/20/2001 12:00,34
3/21/2001 12:00,34
3/22/2001 12:00,38
3/23/2001 12:00,38
3/24/2001 12:00,33
3/25/2001 12:00,33
3/26/2001 12:00,32
3/27/2001 12:00,33
3/28/2001 12:00,34
3/29/2001 12:00,37
3/30/2001 12:00,37
3/31/2001 12:00,37
4/1/2001 12:00,37
4/2/2001 12:00,40
4/3/2001 12:00,41
4/4/2001 12:00,41
4/5/2001 12:00,45
4/6/2001 12:00,43
4/7/2001 12:00,45
4/8/2001 12:00,48
4/9/2001 12:00,49
4/10/2001 12:00,47
4/11/2001 12:00,48
4/12/2001 12:00,49
4/13/2001 12:00,47
4/14/2001 12:00,48
4/15/2001 12:00,49
4/16/2001 12:00,46
4/17/2001 12:00,45
4/18/2001 12:00,45
4/19/2001 12:00,45
4/20/2001 12:00,47
4/21/2001 12:00,48
4/22/2001 12:00,49
4/23/2001 12:00,51
4/24/2001 12:00,50
4/25/2001 12:00,50
4/26/2001 12:00,52
4/27/2001 12:00,54
4/28/2001 12:00,56
4/29/2001 12:00,56
4/30/2001 12:00,57
5/1/2001 12:00,58
5/2/2001 12:00,59
5/3/2001 12:00,59
5/4/2001 12:00,59
5/5/2001 12:00,58
5/6/2001 12:00,58
5/7/2001 12:00,59
5/8/2001 12:00,59
5/9/2001 12:00,60
5/10/2001 12:00,61
5/11/2001 12:00,62
5/12/2001 12:00,61
5/13/2001 12:00,62
5/14/2001 12:00,63
5/15/2001 12:00,64
5/16/2001 12:00,68
5/17/2001 12:00,70
5/18/2001 12:00,71
5/19/2001 12:00,70
5/20/2001 12:00,71
5/21/2001 12:00,70
5/22/2001 12:00,66
5/23/2001 12:00,63
5/24/2001 12:00,61
5/25/2001 12:00,60
5/26/2001 12:00,62
5/27/2001 12:00,62
5/28/2001 12:00,65
5/29/2001 12:00,66
5/30/2001 12:00,67
5/31/2001 12:00,66
6/1/2001 12:00,64
6/2/2001 12:00,64
6/3/2001 12:00,61
6/4/2001 12:00,60
6/5/2001 12:00,60
6/6/2001 12:00,60
6/7/2001 12:00,61
6/8/2001 12:00,64
6/9/2001 12:00,68
6/10/2001 12:00,70
6/11/2001 12:00,72
6/12/2001 12:00,75
6/13/2001 12:00,73
6/14/2001 12:00,76
6/15/2001 12:00,73
6/16/2001 12:00,72
6/17/2001 12:00,74
6/18/2001 12:00,75
6/19/2001 12:00,74
6/20/2001 12:00,73
6/21/2001 12:00,74
6/22/2001 12:00,73
6/23/2001 12:00,74
6/24/2001 12:00,75
6/25/2001 12:00,74
6/26/2001 12:00,77
6/27/2001 12:00,78
6/28/2001 12:00,80
6/29/2001 12:00,80
6/30/2001 12:00,81
7/1/2001 12:00,80
7/2/2001 12:00,78
7/3/2001 12:00,74
7/4/2001 12:00,77
7/5/2001 12:00,77
7/6/2001 12:00,77
7/7/2001 12:00,76
7/8/2001 12:00,78
7/9/2001 12:00,81
7/10/2001 12:00,83
7/11/2001 12:00,81
7/12/2001 12:00,81
7/13/2001 12:00,82
7/14/2001 12:00,81
7/15/2001 12:00,83
7/16/2001 12:00,82
7/17/2001 12:00,82
7/18/2001 12:00,83
7/19/2001 12:00,84
7/20/2001 12:00,82
7/21/2001 12:00,84
7/22/2001 12:00,85
7/23/2001 12:00,84
7/24/2001 12:00,83
7/25/2001 12:00,84
7/26/2001 12:00,81
7/27/2001 12:00,80
7/28/2001 12:00,79
7/29/2001 12:00,79
7/30/2001 12:00,81
7/31/2001 12:00,83
8/1/2001 12:00,85
8/2/2001 12:00,84
8/3/2001 12:00,85
8/4/2001 12:00,85
8/5/2001 12:00,86
8/6/2001 12:00,87
8/7/2001 12:00,87
8/8/2001 12:00,88
8/9/2001 12:00,88
8/10/2001 12:00,85
8/11/2001 12:00,82
8/12/2001 12:00,81
8/13/2001 12:00,80
8/14/2001 12:00,80
8/15/2001 12:00,78
8/16/2001 12:00,75
8/17/2001 12:00,74
8/18/2001 12:00,74
8/19/2001 12:00,74
8/20/2001 12:00,74
8/21/2001 12:00,76
8/22/2001 12:00,74
8/23/2001 12:00,74
8/24/2001 12:00,74
8/25/2001 12:00,74
8/26/2001 12:00,76
8/27/2001 12:00,77
8/28/2001 12:00,77
8/29/2001 12:00,78
8/30/2001 12:00,76
8/31/2001 12:00,76
9/1/2001 12:00,75
9/2/2001 12:00,74
9/3/2001 12:00,74
9/4/2001 12:00,75
9/5/2001 12:00,75
9/6/2001 12:00,75
9/7/2001 12:00,74
9/8/2001 12:00,74
9/9/2001 12:00,72
9/10/2001 12:00,70
9/11/2001 12:00,69
9/12/2001 12:00,70
9/13/2001 12:00,71
9/14/2001 12:00,69
9/15/2001 12:00,67
9/16/2001 12:00,66
9/17/2001 12:00,66
9/18/2001 12:00,66
9/19/2001 12:00,65
9/20/2001 12:00,65
9/21/2001 12:00,65
9/22/2001 12:00,66
9/23/2001 12:00,66
9/24/2001 12:00,64
9/25/2001 12:00,61
9/26/2001 12:00,59
9/27/2001 12:00,59
9/28/2001 12:00,61
9/29/2001 12:00,61
9/30/2001 12:00,62
10/1/2001 12:00,62
10/2/2001 12:00,63
10/3/2001 12:00,64
10/4/2001 12:00,63
10/5/2001 12:00,61
10/6/2001 12:00,58
10/7/2001 12:00,56
10/8/2001 12:00,54
10/9/2001 12:00,54
10/10/2001 12:00,55
10/11/2001 12:00,55
10/12/2001 12:00,56
10/13/2001 12:00,57
10/14/2001 12:00,57
10/15/2001 12:00,55
10/16/2001 12:00,53
10/17/2001 12:00,50
10/18/2001 12:00,51
10/19/2001 12:00,50
10/20/2001 12:00,51
10/21/2001 12:00,50
10/22/2001 12:00,51
10/23/2001 12:00,51
10/24/2001 12:00,51
10/25/2001 12:00,50
10/26/2001 12:00,43
10/27/2001 12:00,42
10/28/2001 12:00,43
10/29/2001 12:00,45
10/30/2001 12:00,45
10/31/2001 12:00,46
11/1/2001 12:00,48
11/2/2001 12:00,49
11/3/2001 12:00,49
11/4/2001 12:00,49
11/5/2001 12:00,49
11/6/2001 12:00,49
11/8/2001 12:00,52
11/9/2001 12:00,49
11/10/2001 12:00,48
11/11/2001 12:00,48
11/12/2001 12:00,48
11/13/2001 12:00,48
11/14/2001 12:00,48
11/15/2001 12:00,50
11/16/2001 12:00,51
11/17/2001 12:00,52
11/18/2001 12:00,52
11/19/2001 12:00,52
11/20/2001 12:00,49
11/21/2001 12:00,47
11/22/2001 12:00,46
11/23/2001 12:00,47
11/24/2001 12:00,47
11/25/2001 12:00,49
11/26/2001 12:00,47
11/27/2001 12:00,44
11/28/2001 12:00,44
11/29/2001 12:00,43
11/30/2001 12:00,43
12/1/2001 12:00,42
12/2/2001 12:00,41
12/3/2001 12:00,41
12/4/2001 12:00,42
12/5/2001 12:00,44
12/6/2001 12:00,45
12/7/2001 12:00,43
12/8/2001 12:00,42
12/9/2001 12:00,42
12/10/2001 12:00,38
12/11/2001 12:00,38
12/12/2001 12:00,38
12/13/2001 12:00,38
12/14/2001 12:00,37
12/15/2001 12:00,37
12/16/2001 12:00,37
12/17/2001 12:00,39
12/18/2001 12:00,38
12/19/2001 12:00,38
12/20/2001 12:00,36
12/21/2001 12:00,35
12/22/2001 12:00,35
12/23/2001 12:00,34
12/24/2001 12:00,32
12/25/2001 12:00,32
12/26/2001 12:00,33
12/27/2001 12:00,33
12/28/2001 12:00,33
12/29/2001 12:00,33
12/30/2001 12:00,33
12/31/2001 12:00,33
1/1/2002 12:00,33
1/2/2002 12:00,33
1/3/2002 12:00,33
1/4/2002 12:00,33
1/5/2002 12:00,33
1/6/2002 12:00,33
1/7/2002 12:00,33
1/8/2002 12:00,33
1/9/2002 12:00,32